Flag for Austria Weather past 2 weeks in Linz, Upper Austria, Austria

54 °F

Partly sunny.

Feels Like: 53 °F
Forecast: 48 / 67 °F
Wind: 3 mph from West

Location: Linz / Hoersching-Flughafen

Current Time: Oct 4, 2015 at 11:17:05 AM

Latest Report: Oct 4, 2015 at 10:20 AM

Visibility: 6 mi

Pressure: 30.04 "Hg

Humidity: 88%

Dew point: 50 °F

Location of LinzLocation

Historic Weather in Linz — Graph


Linz temperature yesterday

Maximum temperature yesterday: 72 °F (at 3:20 PM)
Minimum temperature yesterday: 45 °F (at 7:20 AM)
Average temperature yesterday: 58 °F

Past Weeks' High & Low Weather Summary

High72 °F (Oct 3, 3:20 PM)100% (Sep 19, 9:20 AM)30.51 "Hg (Sep 19, 9:20 AM)
Low41 °F (Sep 30, 5:50 AM)35% (Sep 21, 5:20 PM)29.68 "Hg (Sep 22, 4:50 PM)
Average55 °F70%30.19 "Hg
* Reported Sep 19 9:20 AM — Oct 4 9:50 AM, Linz, Weather by CustomWeather, © 2015

Note: Actual official high and low records may vary slightly from our data, if they occured in-between our weather recording intervals... More about our weather records


Linz weather history for previous 24 hours

Time TempWeatherWind HumidityBarometerVisibility
9:50 AM
Sun, Oct 4
52 °FPartly sunny.1 mph94%30.04 "Hg4 mi
9:20 AM50 °FFog.1 mph94%30.04 "Hg3 mi
8:50 AM48 °FFog.1 mph94%30.01 "Hg3 mi
8:20 AM46 °FFog.2 mph93%30.01 "Hg3 mi
7:50 AM45 °FPassing clouds.1 mph93%30.01 "Hg2 mi
7:20 AM43 °FSnow. Overcast.2 mph100%30.01 "Hg2 mi
6:50 AM45 °FQuite cool.2 mph93%30.01 "Hg4 mi
6:20 AM43 °FSnow. Overcast.1 mph100%30.01 "Hg1 mi
5:50 AM43 °FSleet. Overcast.2 mph100%30.01 "Hg1 mi
5:20 AM45 °FSleet. Overcast.1 mph100%30.01 "Hg2 mi
4:50 AM45 °FFog.1 mph100%30.01 "Hg2 mi
4:20 AM46 °FFog.2 mph93%30.01 "Hg2 mi
3:50 AM46 °FSleet. Light fog.3 mph100%29.98 "Hg3 mi
3:20 AM46 °FPassing clouds.1 mph93%29.98 "Hg6 mi
2:50 AM46 °FSleet. Overcast.1 mph100%29.98 "Hg4 mi
2:20 AM48 °FCool.2 mph100%30.01 "Hg5 mi
1:50 AM48 °FCool.3 mph94%30.01 "Hg5 mi
1:20 AM48 °FCool.2 mph87%29.98 "HgN/A
12:50 AM50 °FCool.2 mph94%29.98 "HgN/A
12:20 AM50 °FCool.1 mph94%29.98 "HgN/A
11:50 PM
Sat, Oct 3
50 °FCool.1 mph94%29.98 "HgN/A
11:20 PM52 °FCool.1 mph94%29.98 "HgN/A
10:50 PM52 °FClear.2 mph94%29.98 "Hg10 mi
10:20 PM54 °FClear.No wind88%29.98 "Hg10 mi
9:50 PM54 °FClear.1 mph88%29.98 "Hg10 mi
9:20 PM55 °FClear.1 mph82%29.98 "Hg10 mi
8:50 PM57 °FClear.2 mph82%29.98 "Hg10 mi
8:20 PM57 °FClear.2 mph77%29.98 "Hg10 mi
7:50 PM59 °FClear.2 mph72%29.98 "Hg10 mi
7:20 PM63 °FSunny.2 mph68%29.98 "Hg10 mi
6:50 PM66 °FSunny.1 mph60%29.98 "Hg10 mi
6:20 PM70 °FSunny.No wind50%29.98 "Hg10 mi
5:50 PM70 °FSunny.3 mph53%29.98 "Hg10 mi
5:20 PM70 °FSunny.5 mph53%29.98 "Hg10 mi
4:50 PM72 °FSunny.2 mph50%29.98 "Hg10 mi
4:20 PM70 °FSunny.1 mph50%29.98 "Hg10 mi
3:50 PM70 °FSunny.2 mph50%29.98 "Hg10 mi
3:20 PM72 °FPassing clouds.3 mph44%29.98 "HgN/A
2:50 PM70 °FPassing clouds.5 mph50%29.98 "HgN/A
2:20 PM70 °FPassing clouds.3 mph50%30.01 "HgN/A
1:50 PM68 °FPassing clouds.3 mph53%30.01 "HgN/A
1:20 PM66 °FSunny.5 mph52%30.01 "Hg10 mi
12:50 PM64 °FPassing clouds.3 mph56%30.04 "HgN/A
12:20 PM63 °FPassing clouds.6 mph59%30.04 "HgN/A
11:50 AM61 °FPassing clouds.6 mph63%30.04 "HgN/A
11:20 AM61 °FPassing clouds.8 mph59%30.04 "HgN/A
Weather by CustomWeather, © 2015

See weather overviewHow to use our weather pages